Stations météo

réclame
Mon MeteoGroup
Tyndrum, Grande-Bretagne (99020): Température de l'air & dewpoint: 16.04.2019 15:00:00 - 22.04.2019 15:00:00 (BST)Tyndrum, Grande-Bretagne (99020): Quantités de précipitations: 16.04.2019 15:00:00 - 22.04.2019 15:00:00 (BST)
Date & Time tt [°C] td [°C] rr [mm]
22.04.2019 15:00:00 21,1 2,9 0,0
22.04.2019 14:00:00 21,1 5,9 0,0
22.04.2019 13:00:00 21,2 5,9 0,0
22.04.2019 12:00:00 19,2 5,2 0,0
22.04.2019 11:00:00 17,3 4,8 0,0
22.04.2019 10:00:00 14,9 6,2 0,0
22.04.2019 09:00:00 9,6 6,8 0,0
22.04.2019 08:00:00 5,2 5,0 0,0
22.04.2019 07:00:00 2,2 1,7 0,0
22.04.2019 06:00:00 2,3 1,6 0,0
22.04.2019 05:00:00 2,5 1,4 0,0
22.04.2019 04:00:00 3,9 2,8 0,0
22.04.2019 03:00:00 4,5 3,0 0,0
22.04.2019 02:00:00 5,8 3,8 0,0
22.04.2019 01:00:00 7,3 4,2 0,0
22.04.2019 00:00:00 9,6 4,7 0,0
21.04.2019 23:00:00 11,8 5,8 0,0
21.04.2019 22:00:00 13,7 5,2 0,0
21.04.2019 21:00:00 14,9 5,5 0,0
21.04.2019 20:00:00 15,6 7,5 0,0
21.04.2019 19:00:00 16,8 7,9 0,0
21.04.2019 18:00:00 17,0 7,8 0,0
21.04.2019 17:00:00 18,5 8,4 0,0
21.04.2019 16:00:00 18,7 9,3 0,0
21.04.2019 15:00:00 19,0 9,7 0,0
21.04.2019 14:00:00 18,3 9,8 0,0
21.04.2019 13:00:00 18,5 10,3 0,0
21.04.2019 12:00:00 16,6 9,4 0,0
21.04.2019 11:00:00 14,9 8,3 0,0
21.04.2019 10:00:00 13,1 8,8 0,0
21.04.2019 09:00:00 10,5 9,0 0,0
21.04.2019 08:00:00 8,7 8,3 0,0
21.04.2019 07:00:00 7,5 7,1 0,0
21.04.2019 06:00:00 7,5 7,0 0,0
21.04.2019 05:00:00 7,8 7,4 0,0
21.04.2019 04:00:00 7,3 6,6 0,0
21.04.2019 03:00:00 8,4 7,8 0,0
21.04.2019 02:00:00 8,6 7,6 0,0
21.04.2019 01:00:00 9,9 8,8 0,0
21.04.2019 00:00:00 10,7 8,8 0,0
20.04.2019 23:00:00 11,8 9,4 0,0
20.04.2019 22:00:00 13,3 10,3 0,0
20.04.2019 21:00:00 14,4 10,0 0,0
20.04.2019 20:00:00 15,6 9,8 0,0
20.04.2019 19:00:00 17,6 9,9 0,0
20.04.2019 18:00:00 18,6 10,1 0,0
20.04.2019 17:00:00 20,6 9,6 0,0
20.04.2019 16:00:00 21,1 9,9 0,0
20.04.2019 15:00:00 20,8 9,9 0,0
20.04.2019 14:00:00 20,1 10,8 0,0
20.04.2019 13:00:00 19,0 9,6 0,0
20.04.2019 12:00:00 19,7 9,0 0,0
20.04.2019 11:00:00 16,8 7,2 0,0
20.04.2019 10:00:00 14,4 7,0 0,0
20.04.2019 09:00:00 10,7 6,9 0,0
20.04.2019 08:00:00 7,0 6,1 0,0
20.04.2019 07:00:00 4,8 3,9 0,0
20.04.2019 06:00:00 5,0 3,9 0,0
20.04.2019 05:00:00 5,5 4,4 0,0
20.04.2019 04:00:00 5,5 4,1 0,0
20.04.2019 03:00:00 6,1 4,3 0,0
20.04.2019 02:00:00 6,3 4,1 0,0
20.04.2019 01:00:00 7,2 4,3 0,0
20.04.2019 00:00:00 9,4 4,6 0,0
19.04.2019 23:00:00 11,1 4,4 0,0
19.04.2019 22:00:00 14,1 4,4 0,0
19.04.2019 21:00:00 14,5 4,7 0,0
19.04.2019 20:00:00 16,3 4,7 0,0
19.04.2019 19:00:00 18,2 5,7 0,0
19.04.2019 18:00:00 20,3 6,5 0,0
19.04.2019 17:00:00 19,3 6,2 0,0
19.04.2019 16:00:00 19,4 5,3 0,0
19.04.2019 15:00:00 19,9 6,9 0,0
19.04.2019 14:00:00 18,9 6,1 0,0
19.04.2019 13:00:00 18,0 5,5 0,0
19.04.2019 12:00:00 15,7 6,9 0,0
19.04.2019 11:00:00 13,8 5,8 0,0
19.04.2019 10:00:00 11,5 6,8 0,0
19.04.2019 09:00:00 8,6 6,0 0,0
19.04.2019 08:00:00 6,2 4,6 0,0
19.04.2019 07:00:00 5,5 4,0 0,0
19.04.2019 06:00:00 6,0 4,6 0,0
19.04.2019 05:00:00 5,2 3,4 0,0
19.04.2019 04:00:00 6,7 3,9 0,0
19.04.2019 03:00:00 7,8 4,3 0,0
19.04.2019 02:00:00 8,1 4,3 0,0
19.04.2019 01:00:00 9,7 3,7 0,0
19.04.2019 00:00:00 9,0 4,7 0,0
18.04.2019 23:00:00 8,6 5,1 0,0
18.04.2019 22:00:00 10,5 5,7 0,0
18.04.2019 21:00:00 12,6 6,8 0,0
18.04.2019 20:00:00 14,0 7,5 0,0
18.04.2019 19:00:00 14,4 8,0 0,0
18.04.2019 18:00:00 15,6 8,5 0,0
18.04.2019 17:00:00 17,1 8,1 0,0
18.04.2019 16:00:00 17,4 7,6 0,0
18.04.2019 15:00:00 16,3 8,0 0,0
18.04.2019 14:00:00 16,2 8,1 0,0
18.04.2019 13:00:00 15,2 7,5 0,0
18.04.2019 12:00:00 13,3 6,4 0,0
18.04.2019 11:00:00 12,6 5,4 0,0
18.04.2019 10:00:00 10,2 5,5 0,0
18.04.2019 09:00:00 8,6 4,9 0,0
18.04.2019 08:00:00 6,6 3,8 0,0
18.04.2019 07:00:00 4,4 2,7 0,0
18.04.2019 06:00:00 4,8 2,2 0,0
18.04.2019 05:00:00 5,5 2,5 0,0
18.04.2019 04:00:00 4,5 2,2 0,0
18.04.2019 03:00:00 2,6 1,0 0,0
18.04.2019 02:00:00 2,7 0,5 0,0
18.04.2019 01:00:00 4,6 0,9 0,0
18.04.2019 00:00:00 6,9 1,3 0,0
17.04.2019 23:00:00 8,0 1,1 0,0
17.04.2019 22:00:00 8,1 1,4 0,0
17.04.2019 21:00:00 9,0 2,6 0,0
17.04.2019 20:00:00 9,8 3,4 0,0
17.04.2019 19:00:00 11,3 4,5 0,0
17.04.2019 18:00:00 12,9 5,1 0,0
17.04.2019 17:00:00 13,1 4,9 0,0
17.04.2019 16:00:00 13,5 5,5 0,0
17.04.2019 15:00:00 12,4 4,8 0,0
17.04.2019 14:00:00 13,0 5,1 0,0
17.04.2019 13:00:00 11,8 4,6 0,0
17.04.2019 12:00:00 9,9 4,4 0,0
17.04.2019 11:00:00 8,6 3,9 0,0
17.04.2019 10:00:00 7,3 3,4 0,0
17.04.2019 09:00:00 6,2 2,7 0,0
17.04.2019 08:00:00 5,9 2,5 0,0
17.04.2019 07:00:00 5,8 2,4 0,0
17.04.2019 06:00:00 5,5 2,6 0,0
17.04.2019 05:00:00 5,6 2,7 0,0
17.04.2019 04:00:00 5,5 2,9 0,0
17.04.2019 03:00:00 5,5 3,1 0,0
17.04.2019 02:00:00 5,6 3,3 0,0
17.04.2019 01:00:00 5,9 3,6 0,0
17.04.2019 00:00:00 6,1 3,9 0,0
16.04.2019 23:00:00 6,1 3,9 0,0
16.04.2019 22:00:00 6,2 4,2 0,6
16.04.2019 21:00:00 6,3 4,4 0,0
16.04.2019 20:00:00 6,5 4,3 0,2
16.04.2019 19:00:00 6,7 4,3 0,0
16.04.2019 18:00:00 6,9 4,6 0,2
16.04.2019 17:00:00 7,1 4,7 0,2
16.04.2019 16:00:00 7,2 4,7 0,4
16.04.2019 15:00:00 7,4 5,1 0,2

tt = Température de l'air
td = dewpoint
rr = Quantités de précipitations

stations d'obs. à proximité